Wind_Speed
25 26 27 27 29 30 32 33 30 33 36 35 32 20 4 2 3 1 2 3 4 4 3 1 3 3 5 7 8 9 8 8 10 11 10 9 8 7 6 8 8 9 8 7 8 8 5 6 7 7 8 10 11 10 11 10 8 6 5 6 9 7 2 3 7 6 8 14 15 12 8 8 8 7 5 4 4 4 2 2 2 3 4 3 2 5 3
25 25 27 28 29 30 31 30 28 29 32 33 26 11 2 4 4 2 3 3 4 3 3 2 4 4 4 8 9 9 9 8 9 9 9 8 8 7 6 7 6 7 8 7 7 6 4 7 9 7 3 7 14 15 14 12 9 6 4 4 5 4 3 4 5 6 6 8 8 7 9 11 7 7 10 11 10 9 6 4 4 2 5 7 1 4 3
24 25 27 28 29 29 29 28 26 26 29 32 22 6 3 5 4 2 5 8 5 3 4 5 4 5 6 7 7 8 9 8 8 8 9 8 8 7 7 8 7 7 8 8 7 6 5 5 8 8 6 4 11 15 14 12 9 7 8 8 3 2 3 3 2 3 4 4 4 4 7 10 7 10 14 15 15 14 8 4 5 3 6 9 3 5 5
23 24 27 28 28 29 28 26 24 24 27 31 20 5 3 3 2 3 4 5 6 4 4 7 6 6 6 4 6 7 8 8 8 8 8 9 10 7 6 8 8 9 10 8 8 9 9 6 6 7 8 6 8 11 12 10 8 9 11 11 4 1 1 2 3 4 5 6 6 8 9 9 10 15 18 16 14 14 7 1 3 4 6 5 4 5 9
22 23 26 28 27 28 27 25 25 23 24 28 18 3 3 3 2 4 3 2 5 4 5 7 7 8 7 2 5 9 9 9 7 7 6 8 10 6 5 7 7 8 8 5 5 9 10 7 6 8 8 7 9 11 10 7 6 8 9 9 4 1 2 4 5 7 8 10 12 13 12 11 12 16 18 17 14 12 8 4 5 8 7 5 7 10 11
21 23 25 26 26 27 25 23 25 23 21 22 14 2 0 3 3 4 2 1 3 4 5 6 7 9 9 5 6 9 10 8 6 5 5 8 9 6 3 7 7 7 6 2 3 8 7 5 7 7 7 7 8 9 8 6 5 6 5 6 4 1 3 5 7 10 10 12 13 13 12 12 12 13 16 18 15 11 10 7 7 8 6 5 10 13 12
20 22 23 25 24 25 24 22 24 24 20 16 10 3 3 3 3 6 6 3 3 4 5 6 8 8 7 5 7 8 9 9 7 7 5 5 8 6 4 7 8 7 7 4 3 5 3 4 5 3 3 3 4 3 4 5 5 5 1 3 3 1 2 6 8 10 11 11 13 13 13 12 13 14 15 17 16 14 12 9 8 10 10 9 10 11 11
19 21 22 23 23 24 24 22 22 23 21 17 11 7 7 4 2 5 6 4 4 5 5 5 7 7 6 4 5 7 8 9 7 7 8 7 6 5 5 8 8 9 7 4 4 5 4 4 3 3 3 3 2 1 2 3 3 2 1 1 2 2 2 7 7 7 9 10 12 12 12 12 13 15 14 15 18 15 11 9 8 8 10 9 8 8 7
17 19 21 21 21 22 22 22 22 22 22 18 11 9 11 9 8 8 4 1 3 3 3 6 6 5 5 4 5 7 8 8 5 5 6 5 3 3 5 5 4 5 5 5 5 6 5 7 7 6 5 5 3 2 3 3 3 3 2 1 2 3 1 4 4 4 6 8 11 12 13 14 14 14 13 14 16 13 8 7 7 7 9 9 8 6 4
16 18 19 19 19 20 20 21 22 22 24 20 10 9 15 14 12 11 5 2 2 2 4 6 4 2 2 4 6 7 7 6 4 2 3 2 5 2 3 3 3 3 5 6 5 2 5 7 8 7 6 6 5 5 6 6 4 3 3 3 1 2 1 1 1 3 5 8 10 12 13 11 9 9 9 10 12 13 11 10 11 11 9 7 5 4 5
15 16 18 18 17 18 18 19 19 20 23 21 12 9 15 14 9 7 4 1 3 4 5 5 3 2 4 6 7 5 6 5 4 2 2 3 3 2 2 1 1 1 2 4 4 3 3 5 7 6 6 8 8 6 6 7 5 3 3 3 2 1 1 1 1 2 5 7 9 9 8 7 6 7 7 7 9 12 12 11 10 8 7 7 7 4 10
14 15 16 17 16 16 15 16 17 16 18 20 14 10 16 17 10 5 3 2 3 5 4 2 2 4 8 8 6 4 5 5 2 3 2 4 4 5 3 1 0 1 1 3 5 6 6 6 7 7 6 6 7 6 6 5 4 3 3 3 3 2 2 1 1 2 3 5 5 5 6 6 7 11 11 11 12 11 11 12 9 9 9 10 10 8 11
12 13 14 15 15 14 13 13 14 14 14 16 15 12 15 18 11 3 3 3 3 5 2 0 3 8 8 6 5 3 3 4 4 3 3 3 3 4 3 3 3 4 6 7 8 7 5 5 5 5 5 3 3 3 3 4 4 4 4 4 3 2 3 2 2 2 3 2 1 3 6 6 9 14 13 11 9 6 7 9 7 11 12 10 10 10 11
11 12 13 14 14 12 11 11 12 12 12 14 14 12 13 16 12 5 3 3 2 4 3 2 5 8 6 4 4 2 3 2 4 4 4 3 4 5 5 7 8 9 8 7 6 4 3 2 3 3 3 1 1 0 2 3 4 6 6 4 2 2 3 2 2 4 3 3 3 4 7 8 9 11 8 6 5 3 3 3 4 10 12 10 9 10 11
10 11 11 12 13 11 10 8 9 10 10 12 13 11 11 14 13 8 5 3 2 3 4 3 4 5 4 4 4 3 3 3 3 3 5 4 4 5 7 9 11 12 9 3 2 2 2 2 2 2 2 1 1 1 2 3 4 6 6 5 4 2 0 1 1 2 2 3 4 4 6 7 5 5 8 11 10 5 1 2 2 7 11 11 10 10 11
9 9 10 11 12 11 9 7 7 8 9 10 12 12 12 13 14 12 7 3 3 1 3 2 1 2 2 3 1 1 2 2 2 3 4 4 4 6 7 7 9 9 7 2 1 1 2 1 1 1 1 1 2 0 2 1 2 4 5 6 6 4 1 4 2 2 1 3 4 4 5 5 2 6 10 13 14 12 6 3 2 5 9 11 10 10 10
8 7 9 10 10 10 9 7 5 6 7 8 10 11 11 12 14 13 8 3 3 1 3 3 1 1 1 2 1 1 2 3 3 2 3 3 4 5 6 5 5 4 3 2 0 0 1 1 1 1 2 2 3 1 1 0 2 3 3 5 6 4 1 3 2 4 4 5 5 4 4 2 4 8 10 12 15 14 8 4 2 5 9 8 9 10 9
7 7 8 9 9 9 8 6 4 4 5 6 7 8 8 10 13 12 7 3 3 2 3 5 2 1 1 1 1 2 2 2 2 1 3 2 1 2 4 3 2 1 1 2 2 1 1 1 1 2 2 2 3 1 1 1 1 2 3 3 3 3 1 2 3 3 5 7 6 5 3 0 6 10 10 11 13 9 3 2 2 5 8 7 8 8 8
6 6 7 7 8 8 6 5 4 3 3 4 5 6 7 9 12 11 7 3 2 3 4 4 2 0 1 3 2 2 2 2 1 0 3 2 1 3 4 1 0 1 1 1 1 0 1 0 1 1 2 1 1 1 1 2 2 1 3 2 2 2 2 1 2 1 3 4 5 5 3 1 7 11 8 6 6 4 2 3 6 6 6 8 8 7 7
6 6 6 6 7 7 6 4 3 2 1 2 4 5 6 8 10 10 7 4 3 4 7 5 7 9 7 2 2 2 2 2 1 1 3 2 2 4 4 1 0 2 1 1 1 0 0 0 0 1 1 0 0 1 2 2 2 2 1 2 1 0 1 2 1 1 2 3 4 4 3 1 8 10 5 3 3 3 4 6 7 7 7 8 7 6 7
7 5 5 5 6 6 6 3 2 0 1 1 3 5 5 5 5 6 5 6 4 2 4 8 14 16 15 11 10 9 6 4 2 0 1 1 1 1 2 1 1 1 1 1 1 0 1 0 1 1 0 1 1 2 2 1 2 2 4 3 1 2 2 1 1 0 0 2 3 2 2 1 5 4 2 3 4 4 5 6 6 6 7 6 6 7 8
8 6 5 5 5 6 6 3 1 1 2 2 1 3 5 6 5 5 5 6 5 6 10 16 20 20 20 19 18 15 10 7 4 1 1 1 1 1 1 2 1 0 1 0 1 0 1 1 1 1 1 1 1 1 1 1 2 2 4 3 2 3 3 2 2 2 2 4 5 4 1 1 2 2 2 4 5 4 5 6 6 5 5 5 6 7 9
8 7 5 5 5 6 6 4 1 2 4 4 2 2 5 7 5 6 8 7 8 10 16 20 18 15 17 18 17 16 11 8 6 4 3 2 2 2 2 1 0 1 1 1 1 1 1 1 0 0 1 1 0 1 2 2 2 2 3 2 2 4 5 4 2 3 3 4 7 6 2 2 4 5 3 2 4 5 6 6 6 6 6 6 6 7 9
9 8 6 5 5 6 6 5 3 3 4 6 6 5 5 6 4 6 8 7 4 5 9 10 7 7 10 13 13 13 14 12 9 7 6 5 3 2 1 2 1 1 1 2 2 1 1 1 0 1 1 1 0 1 3 3 1 2 2 2 2 4 4 2 3 3 2 2 3 3 4 5 7 6 3 3 5 5 5 5 6 7 8 7 7 7 9
9 8 7 7 6 6 7 6 4 4 4 6 8 7 5 6 4 5 6 5 2 3 4 4 5 8 10 11 13 11 10 12 11 10 10 10 9 4 2 1 4 2 1 3 3 1 1 1 1 0 1 1 0 1 2 2 1 2 2 2 1 3 2 2 3 2 3 6 5 4 7 8 6 2 3 5 7 8 7 7 7 8 9 9 8 8 8
9 9 8 8 7 7 7 6 6 5 5 6 7 8 8 7 5 4 6 6 4 4 3 3 6 9 11 12 15 15 11 10 12 12 12 13 13 11 9 4 4 4 3 3 3 2 2 1 1 1 1 1 1 1 2 1 1 3 3 2 2 3 2 2 1 3 5 8 5 5 8 9 5 3 6 7 8 9 10 10 9 9 10 10 10 9 9
8 9 9 8 8 8 8 8 8 7 7 7 7 9 10 10 7 7 8 7 3 2 3 3 4 10 15 18 21 21 17 15 14 12 12 13 14 14 12 6 4 4 3 2 1 2 1 1 2 2 2 2 2 3 3 1 1 2 4 3 3 3 3 2 1 3 5 3 1 3 4 7 6 6 9 9 8 9 11 11 11 10 10 10 11 11 11
8 9 9 9 8 8 8 8 8 8 8 7 7 8 11 12 11 9 9 7 4 2 3 4 6 11 15 17 18 17 16 17 17 16 14 14 15 15 11 6 5 4 3 1 1 2 2 2 3 2 2 2 2 2 1 1 1 3 4 4 4 3 3 3 2 4 4 2 2 1 1 5 7 8 9 9 8 9 11 12 12 12 11 11 11 13 13
8 8 9 9 9 8 8 8 8 8 8 6 5 7 11 12 11 10 10 10 9 5 4 5 7 8 9 11 16 16 13 14 15 16 14 13 13 13 11 7 5 4 4 2 2 2 3 3 2 2 2 2 2 1 0 1 2 3 2 4 5 4 4 4 4 5 5 4 2 2 3 6 7 8 8 8 7 8 9 10 11 11 12 13 12 12 13
7 8 9 9 10 9 8 8 8 7 6 3 3 5 7 6 6 10 10 11 11 7 3 4 5 5 7 10 14 16 14 12 12 14 15 13 10 8 9 8 6 5 4 3 2 2 2 2 2 2 3 5 4 2 1 2 3 2 3 4 5 4 4 5 6 5 5 5 4 4 5 7 6 6 7 7 7 8 8 9 10 12 13 15 13 11 12
7 8 8 10 10 10 9 8 7 6 5 3 1 2 3 0 4 8 10 9 9 6 3 4 5 5 6 8 9 11 13 12 9 9 9 7 4 5 7 6 5 5 5 4 3 2 2 2 3 2 3 5 4 1 2 2 3 2 4 5 5 5 5 5 5 5 6 5 4 4 6 6 5 5 5 5 8 9 9 9 12 14 16 16 14 12 13
7 8 9 10 11 11 9 9 7 6 7 9 9 8 7 3 6 10 11 8 6 4 2 4 4 4 3 4 6 9 9 6 1 3 6 6 4 4 6 4 1 2 1 1 1 2 2 3 4 3 2 2 1 1 2 4 4 3 6 6 5 5 5 4 4 5 6 5 4 4 5 5 5 4 4 5 8 10 9 10 13 15 16 15 15 14 15
8 8 9 11 12 11 9 8 7 7 8 12 16 18 15 11 9 12 12 6 5 5 3 2 4 4 3 4 6 7 5 1 3 1 0 1 1 1 1 2 0 1 0 2 2 2 1 2 2 2 2 2 1 0 3 5 3 5 7 6 4 4 5 5 5 5 5 6 6 5 5 5 5 6 6 6 7 9 10 12 12 13 13 12 12 12 13
8 8 9 11 11 10 8 6 5 5 6 9 13 14 11 9 11 14 13 7 4 5 4 2 3 5 4 5 5 3 3 2 1 2 2 2 2 2 1 1 1 1 3 4 2 2 2 2 2 1 2 2 2 1 4 5 4 6 5 4 3 3 3 4 4 4 3 5 7 6 6 7 7 6 6 5 5 7 10 11 10 9 10 10 10 11 11
8 8 9 10 9 6 4 3 3 4 5 8 10 9 6 5 7 14 18 12 4 2 3 3 3 4 5 6 5 1 1 1 1 2 1 2 3 2 1 0 2 2 2 2 2 3 3 2 3 2 2 2 3 3 4 4 6 5 4 4 4 3 2 3 3 3 2 3 4 4 4 5 5 4 4 4 3 5 8 8 8 8 8 9 9 10 10
7 7 7 6 4 2 1 3 5 6 4 5 4 3 4 3 3 10 18 16 9 4 3 2 3 5 5 6 4 0 1 1 0 2 1 1 0 1 1 2 3 2 1 2 3 3 2 2 2 2 1 2 4 3 1 2 5 6 6 5 4 3 3 3 2 3 2 1 1 2 2 4 4 2 3 3 2 3 5 7 8 8 9 9 9 9 9
6 4 3 3 3 1 3 5 7 7 6 4 2 1 3 3 3 6 10 11 10 8 3 3 5 5 4 5 4 1 1 1 1 1 1 0 1 1 2 2 2 1 1 3 3 2 2 2 1 2 2 2 3 3 2 2 3 5 5 4 4 4 4 3 3 3 3 2 2 2 2 4 5 3 1 1 2 3 5 6 7 8 9 9 9 9 10
3 2 1 2 2 2 2 3 5 6 6 5 5 3 2 3 2 3 4 4 6 6 4 3 6 5 3 5 3 1 1 2 0 1 0 0 0 1 2 1 1 1 1 2 1 1 1 1 1 2 2 2 3 5 5 5 3 3 4 4 4 4 3 3 2 2 2 2 2 3 3 3 4 4 3 2 2 2 3 5 6 8 8 9 10 11 11
1 1 2 3 3 2 1 1 3 4 5 5 4 2 2 3 2 2 2 3 3 4 3 4 5 4 5 7 4 1 1 2 1 1 1 1 1 1 1 1 0 1 1 2 1 1 2 1 2 2 2 2 4 5 6 5 4 4 4 4 4 4 3 3 2 1 1 2 2 2 2 2 3 3 3 2 2 2 3 4 7 10 10 10 12 12 11
3 4 4 2 1 1 1 1 2 2 2 3 3 2 2 2 2 2 1 2 2 2 3 4 4 4 6 6 4 2 2 3 2 1 2 1 0 1 1 1 0 1 3 2 1 1 1 1 1 2 2 4 5 5 5 5 5 5 5 5 5 5 5 4 3 2 2 2 1 1 2 3 3 3 4 3 2 2 3 4 7 11 12 13 15 14 14
3 4 4 4 6 6 3 2 3 3 2 2 2 2 2 2 2 1 1 2 2 2 3 3 2 2 2 2 2 2 3 3 1 0 1 1 1 1 1 1 1 2 3 1 1 1 1 1 1 2 3 4 5 5 5 6 6 5 5 5 6 5 5 4 4 2 3 1 2 0 3 3 3 3 4 3 3 2 3 4 7 11 14 15 16 17 18
5 6 9 12 14 10 6 5 4 3 2 1 1 2 2 2 2 1 1 2 2 1 1 1 1 2 3 2 1 0 2 1 0 0 1 1 1 1 1 1 1 2 2 1 2 1 2 2 2 3 3 5 5 5 5 5 6 6 5 5 6 6 5 4 4 2 2 0 3 1 3 3 4 4 6 6 5 3 2 5 8 11 14 17 18 18 20
9 10 11 12 9 4 3 3 3 2 1 1 1 1 2 2 1 1 1 2 1 1 1 1 1 2 4 3 0 1 0 1 1 0 1 1 0 1 1 1 1 1 1 0 1 1 2 2 2 2 3 5 5 6 6 5 6 6 6 5 6 6 5 5 6 4 1 2 2 1 2 4 5 5 6 8 7 4 2 4 8 11 14 17 19 19 21
8 7 6 5 3 2 2 1 2 2 2 2 1 1 3 2 1 1 2 2 1 2 2 3 3 5 5 2 1 1 0 1 1 1 1 1 1 1 1 2 1 1 0 1 1 2 2 2 1 3 5 5 5 6 6 6 6 7 7 6 7 7 6 5 5 5 5 3 3 2 2 4 5 6 7 9 9 6 4 3 6 10 14 16 18 19 22
4 3 2 2 2 0 1 0 1 2 2 2 2 2 3 3 2 3 3 2 3 4 3 2 2 6 5 2 1 0 1 1 1 2 1 1 1 1 1 1 1 1 1 1 1 1 1 1 2 2 3 4 5 6 6 6 5 6 7 7 6 5 5 4 3 5 6 3 2 3 3 4 5 5 6 8 10 8 6 4 4 8 13 15 17 19 21
3 2 1 1 2 2 1 1 2 2 1 0 0 1 3 2 3 4 4 3 3 5 4 2 2 5 4 2 0 1 1 1 1 1 1 1 2 2 1 0 1 2 2 2 2 0 1 2 2 2 3 3 5 6 5 5 5 6 7 6 5 5 5 4 4 6 7 5 2 3 4 5 5 6 6 8 9 9 6 6 6 8 11 13 15 18 20
3 2 1 1 2 2 2 2 2 1 1 2 2 3 4 3 3 5 4 2 3 5 4 2 2 3 3 1 1 1 1 1 1 1 1 1 2 2 1 1 1 2 2 1 1 0 1 1 2 4 4 2 4 6 6 5 5 6 7 6 5 5 5 4 4 6 9 8 5 4 4 4 5 6 8 8 8 9 6 6 8 9 11 12 13 16 18
3 2 2 2 2 2 2 1 0 1 1 1 1 2 2 3 4 4 3 1 2 3 3 2 3 3 2 2 2 1 1 1 2 1 1 1 2 1 1 2 2 1 0 1 1 1 1 2 4 4 2 3 2 4 5 5 5 8 9 6 5 5 6 4 3 8 11 9 6 4 4 3 4 6 7 5 4 6 7 7 8 8 9 11 13 15 17
4 2 2 2 2 3 3 1 1 1 2 0 1 0 2 4 4 3 2 0 1 2 2 2 3 3 2 2 2 1 0 0 1 1 1 1 2 1 1 2 3 2 2 2 3 2 0 3 4 3 2 3 4 4 4 5 6 8 9 7 5 6 7 7 9 13 13 8 5 5 4 2 3 5 5 1 1 2 7 9 9 9 9 10 12 14 16
4 2 2 3 4 5 4 2 1 3 2 1 2 1 3 4 3 2 2 1 1 1 2 1 1 1 2 2 2 2 1 1 1 1 1 1 1 2 2 3 3 2 2 3 3 3 2 3 2 2 3 3 5 5 4 5 5 7 9 8 7 7 9 12 14 14 12 9 8 7 5 4 5 5 3 2 1 3 8 11 12 10 10 11 12 13 16
3 3 4 5 5 5 4 3 3 4 3 2 0 2 2 2 2 2 3 3 2 2 2 2 1 1 2 2 2 2 2 1 1 2 2 1 1 1 2 3 4 4 4 4 3 2 2 3 3 3 3 3 3 4 4 4 5 7 9 10 9 8 11 15 16 14 13 11 10 8 6 5 4 2 1 3 5 7 9 10 11 10 10 11 11 13 15
3 3 4 4 3 2 2 2 3 3 3 2 2 2 1 1 2 1 3 2 2 3 3 2 1 1 1 1 1 2 2 2 2 2 2 1 1 1 2 4 5 5 5 4 4 3 2 3 4 4 3 2 1 3 4 4 6 6 7 10 10 8 8 12 15 14 13 14 12 9 7 5 3 2 3 6 7 7 5 6 8 10 10 11 12 13 15
Wind_Direction
350 349 351 354 355 355 355 358 1 359 359 1 357 346 310 308 332 301 313 269 263 307 301 271 65 77 111 101 68 54 57 32 21 24 22 23 11 8 36 33 30 28 17 31 28 7 8 6 16 59 71 65 66 45 21 21 33 37 15 7 3 342 333 343 317 309 305 301 306 310 318 335 327 315 318 302 303 320 290 261 315 332 297 277 220 234 264
351 352 354 355 355 355 356 359 1 1 1 360 354 343 312 329 290 246 14 339 275 313 341 4 71 80 89 92 81 71 62 38 27 26 24 23 5 4 35 36 38 31 11 27 38 20 11 359 6 28 52 76 63 39 22 27 37 44 27 11 13 352 360 12 336 325 328 319 322 333 353 1 337 316 337 335 328 333 328 335 360 332 326 346 334 230 273
352 354 356 356 356 355 357 359 360 0 358 356 354 336 298 322 265 241 38 46 49 35 8 7 40 52 44 56 70 86 80 45 28 36 37 25 4 10 32 24 26 34 24 23 20 30 52 6 354 11 1 30 48 31 22 26 25 25 7 350 6 27 347 4 351 316 320 322 338 345 344 345 321 311 331 334 341 356 6 6 357 328 347 0 334 265 312
354 356 358 358 358 357 359 359 358 359 357 353 349 318 277 313 316 337 8 39 41 40 24 23 32 31 28 30 23 45 76 65 32 29 42 30 10 15 38 28 26 32 29 25 12 17 33 17 349 7 3 355 13 15 18 19 11 11 354 335 340 73 297 286 249 255 273 281 293 302 306 313 310 314 321 322 333 349 352 10 3 326 328 332 283 309 344
356 358 359 360 0 1 2 0 357 359 358 353 347 296 239 298 355 16 347 349 20 25 27 32 33 24 27 26 354 12 42 58 35 22 53 47 19 12 43 36 36 41 28 18 25 18 10 4 5 7 2 351 354 3 1 353 8 18 354 335 352 20 278 275 264 263 274 280 285 296 303 306 306 308 311 310 317 330 326 333 353 333 322 304 305 335 343
358 359 360 1 4 5 5 3 1 2 2 358 350 296 247 342 4 23 352 319 26 19 25 52 57 40 33 27 13 21 33 40 32 24 63 69 34 3 37 43 28 42 46 16 35 33 7 2 18 8 1 354 350 354 333 320 27 46 358 344 19 8 289 302 295 286 287 288 290 296 299 298 300 303 303 303 308 315 312 317 327 314 301 295 309 323 321
359 0 2 3 7 9 8 6 6 9 13 14 9 4 9 4 6 360 348 3 37 8 15 64 73 56 45 32 21 26 30 28 22 9 9 66 51 359 6 40 7 5 50 66 55 49 15 360 12 354 343 333 316 322 312 325 38 63 2 350 40 76 292 307 307 302 301 297 294 295 293 288 291 295 297 298 301 302 298 301 308 303 292 285 295 308 314
0 2 3 4 9 13 14 13 12 15 22 26 28 26 14 11 27 350 334 6 17 340 352 43 64 50 38 36 24 28 43 35 13 8 8 28 43 2 1 34 3 344 15 37 38 39 4 325 315 283 283 285 283 348 334 325 357 351 275 69 94 110 329 320 321 312 304 302 299 296 296 293 288 286 288 292 292 286 283 289 298 299 290 288 300 311 312
3 5 4 5 10 15 19 21 19 23 29 25 17 19 11 2 9 360 323 336 352 315 6 45 61 51 30 35 29 22 48 50 14 9 20 4 354 357 7 18 345 332 357 11 28 28 334 291 292 312 327 323 336 343 296 289 319 318 313 321 149 144 287 319 329 306 292 300 303 302 305 300 288 281 279 282 286 286 285 290 291 290 296 309 321 316 298
5 6 4 5 10 16 22 26 26 31 33 24 4 10 13 2 356 356 334 266 335 352 63 54 55 77 49 58 52 22 20 44 43 14 358 278 223 214 9 351 317 335 358 360 6 341 279 289 309 325 322 304 292 277 281 306 332 325 321 318 271 157 214 294 326 287 285 297 303 311 315 301 282 276 271 266 278 288 287 279 274 273 282 299 295 290 335
5 7 4 3 9 18 24 29 30 33 32 21 359 2 18 6 341 337 326 301 18 37 64 54 30 50 41 40 54 38 357 12 86 125 321 303 255 267 348 5 321 355 333 318 324 322 313 314 307 293 280 280 282 279 295 317 315 279 278 289 277 237 240 286 318 269 280 297 305 312 307 285 277 286 281 277 294 305 304 298 295 290 285 287 286 324 21
4 7 5 2 6 17 26 31 33 35 33 25 12 7 13 2 338 317 319 335 53 60 63 53 8 46 51 40 40 37 348 338 85 141 278 311 313 314 336 22 327 3 340 316 347 10 355 324 303 290 281 286 291 286 294 314 312 289 283 286 283 265 247 263 258 243 280 302 314 305 271 257 281 295 302 312 319 332 331 317 330 8 5 344 338 12 44
3 8 6 1 3 14 25 30 35 38 37 32 24 13 8 2 351 337 331 335 56 65 49 64 45 44 51 48 35 14 313 314 351 357 319 323 327 314 340 23 357 353 9 3 3 5 343 319 317 300 282 284 295 287 302 328 342 342 322 303 298 273 246 239 229 231 269 278 224 246 267 280 293 293 299 310 317 354 354 316 338 32 27 12 11 24 40
3 8 5 360 1 12 24 31 36 38 37 31 22 12 8 7 1 346 337 342 18 37 23 26 42 38 36 36 30 332 282 325 10 349 314 322 335 322 344 15 7 356 1 7 4 356 331 327 328 294 279 266 142 58 1 358 0 350 327 318 337 297 262 260 249 225 228 247 230 251 286 297 288 280 290 317 325 36 60 294 346 27 17 8 15 22 30
1 6 4 359 0 7 20 32 35 37 36 27 21 17 11 8 1 341 328 327 331 18 41 35 25 25 12 11 22 347 330 7 18 336 312 313 330 334 346 11 11 354 342 345 7 351 321 320 320 311 326 49 124 343 345 358 356 339 335 6 22 345 203 120 251 237 217 254 257 255 270 272 269 292 329 341 335 342 85 227 312 18 10 3 10 16 22
355 4 4 360 358 2 15 32 34 34 35 28 28 26 13 7 4 350 337 328 318 9 92 101 65 42 340 318 11 17 334 353 10 342 323 324 342 342 345 9 16 353 332 329 35 358 315 313 321 315 315 118 122 252 293 343 340 320 350 16 352 305 167 130 183 244 236 247 245 238 246 249 297 344 342 336 327 325 321 273 269 358 356 356 3 7 14
347 359 2 358 356 360 11 25 31 36 34 28 30 25 10 7 7 356 344 333 314 321 118 120 124 108 308 287 302 37 334 343 11 359 307 334 2 345 336 354 4 348 342 346 314 230 297 261 193 243 258 145 122 182 234 12 331 304 351 4 328 304 75 123 201 231 234 236 237 247 251 260 351 342 337 332 324 317 302 256 262 345 340 348 3 359 2
339 352 359 354 352 358 10 24 31 39 40 31 29 22 8 6 3 354 346 333 311 321 76 65 50 99 113 136 302 345 340 329 1 348 291 305 39 326 321 342 349 359 36 347 303 292 310 258 182 273 275 141 123 133 141 128 276 314 348 349 321 326 34 165 209 239 247 237 234 253 255 349 349 332 331 333 322 307 271 244 305 313 317 338 356 349 350
331 343 354 349 345 352 10 33 42 50 56 36 27 26 13 3 360 359 353 339 318 316 332 9 44 321 181 167 207 284 288 254 210 30 303 305 42 329 314 344 12 289 246 271 289 314 289 216 142 262 269 152 135 152 147 188 214 332 357 327 312 341 336 230 212 271 277 244 238 253 236 79 344 326 326 345 325 282 238 313 296 285 313 341 345 340 348
326 330 341 344 339 343 3 34 59 81 79 19 16 21 8 354 359 8 1 344 341 305 297 335 16 349 322 260 221 267 265 238 163 142 272 296 25 347 317 26 40 292 271 266 299 68 165 235 207 231 231 99 143 183 183 219 206 162 174 245 231 184 305 306 303 325 301 257 245 246 228 11 354 339 345 36 1 283 289 313 307 309 332 338 330 336 350
326 319 324 333 331 334 348 18 58 124 229 330 17 10 355 351 2 9 355 338 332 284 290 341 349 329 308 300 298 293 284 276 282 290 274 283 74 49 323 334 299 271 39 10 305 51 88 301 321 322 234 153 186 205 194 209 231 201 193 209 202 169 190 282 289 143 252 257 252 233 215 330 352 343 331 347 335 302 295 302 307 319 331 333 333 340 345
324 315 314 318 319 324 332 346 52 192 230 226 35 353 337 348 6 4 344 317 287 261 277 299 305 297 291 291 289 285 288 297 293 265 163 238 216 185 265 289 278 185 71 26 246 216 42 309 278 310 304 227 202 253 249 207 229 214 189 187 188 179 175 179 201 214 235 253 264 266 237 276 317 305 315 333 332 325 317 312 311 318 325 333 337 334 333
322 313 307 303 303 312 318 319 290 217 231 235 215 273 313 326 347 351 331 299 271 268 273 276 280 280 277 273 266 260 264 283 288 256 206 207 241 229 226 243 320 46 123 168 216 252 289 292 314 5 298 261 240 301 278 237 203 174 173 185 183 169 156 144 182 252 266 254 260 268 279 340 321 308 313 339 330 327 331 326 320 317 318 322 324 320 321
318 312 304 298 297 301 305 307 287 232 229 237 234 243 289 307 328 344 326 296 271 288 283 268 262 268 274 282 280 257 236 235 247 237 206 191 206 244 233 145 149 252 177 130 116 46 318 289 25 88 266 261 234 254 242 232 198 145 173 220 175 147 148 178 226 262 304 278 269 307 358 336 312 303 316 342 335 330 332 323 314 311 310 308 307 307 308
314 311 305 295 293 295 297 298 288 260 241 239 239 241 266 290 311 335 318 293 276 310 310 283 272 286 299 308 302 278 241 229 230 223 209 195 188 208 274 148 146 169 136 118 130 154 227 236 209 207 247 220 176 208 217 217 167 139 181 236 186 135 151 221 237 241 259 259 267 336 346 312 292 314 8 349 334 326 319 309 304 306 305 299 297 300 301
310 308 305 298 293 291 292 291 287 275 259 245 240 236 244 266 289 300 293 290 276 259 266 267 281 308 329 322 302 295 287 258 237 229 226 210 194 205 235 225 152 154 168 155 161 189 223 243 250 249 224 178 182 231 226 193 158 175 207 224 144 125 162 215 259 276 262 257 272 353 341 306 291 355 352 332 326 322 314 309 304 301 298 295 296 298 296
306 305 306 302 295 291 292 291 285 279 271 259 249 242 241 248 257 264 274 288 293 258 260 263 291 316 322 311 295 288 280 270 264 257 242 225 212 215 223 206 142 147 178 181 192 202 206 232 239 230 214 196 201 229 245 259 170 215 237 213 142 150 215 217 239 264 259 265 23 28 328 292 293 321 322 319 320 314 307 305 303 299 297 296 297 297 294
303 303 304 303 299 296 293 290 285 279 275 268 263 261 260 259 255 247 247 253 257 280 292 285 292 302 303 301 297 283 259 251 260 259 244 231 225 224 217 185 155 177 190 166 185 204 205 224 226 211 205 206 202 220 258 299 228 245 244 200 163 183 209 191 200 242 260 304 11 80 248 272 282 296 304 309 312 307 303 302 300 297 295 293 293 295 295
297 298 299 300 300 297 294 292 290 281 272 275 293 293 284 275 259 235 223 228 234 249 291 287 280 288 296 306 310 298 269 245 244 246 245 242 233 220 208 187 172 186 192 164 155 194 216 229 229 213 199 193 201 249 258 190 232 245 207 165 170 180 174 179 215 247 266 279 267 199 224 256 268 285 297 300 298 295 295 296 296 295 294 292 291 291 291
290 293 297 297 296 296 295 292 289 279 265 267 307 292 277 265 233 216 213 219 222 225 286 302 284 297 306 297 290 285 276 267 258 250 250 251 242 226 222 214 187 170 189 201 186 189 210 211 218 233 201 182 186 234 222 205 239 238 149 160 190 188 173 191 212 223 239 243 220 209 237 253 262 275 281 284 290 297 298 295 294 296 293 290 288 288 288
283 287 295 296 294 294 293 287 284 275 244 205 194 278 283 137 171 199 209 215 216 218 266 286 273 292 293 270 263 267 265 260 258 264 278 293 321 334 307 276 217 186 202 216 196 179 193 199 208 231 200 180 187 228 205 217 254 225 181 193 208 197 193 204 206 210 227 232 219 226 243 249 256 266 272 283 295 300 300 296 296 298 297 293 289 286 285
278 285 293 295 294 295 291 286 281 264 227 209 213 235 247 210 159 174 185 196 211 222 260 277 275 289 282 267 286 291 275 254 239 1 344 341 344 349 351 348 299 239 266 252 181 185 192 204 220 230 179 157 182 272 218 238 254 206 186 197 201 184 178 182 192 215 224 210 203 233 251 246 239 246 265 288 298 300 299 298 300 302 303 299 293 288 285
273 284 292 295 298 296 291 283 274 262 245 237 240 247 249 240 207 183 175 184 229 234 231 267 276 269 273 296 304 288 258 192 85 74 293 276 260 271 54 88 96 295 262 154 183 214 186 167 198 214 179 153 126 286 251 249 221 164 169 190 190 163 156 167 195 223 216 188 187 217 248 250 243 246 257 275 295 306 304 301 304 309 310 306 300 296 294
274 288 295 299 300 294 287 283 272 264 260 253 256 264 268 253 225 203 189 189 250 251 227 242 277 273 275 290 292 258 189 155 134 168 176 167 182 215 219 138 151 204 193 186 195 234 216 148 119 166 190 156 136 218 250 230 173 143 158 188 176 147 151 178 205 222 207 188 195 213 232 242 243 247 260 273 300 318 314 309 311 319 319 313 308 306 304
282 296 299 301 301 292 281 269 243 246 257 254 256 267 274 252 222 209 201 196 207 267 239 221 250 272 280 283 286 284 156 216 182 138 154 206 192 173 94 234 215 204 197 195 200 215 213 162 118 152 187 155 163 219 238 196 154 145 176 194 173 159 182 210 226 239 230 197 195 211 242 257 252 240 247 266 301 329 327 321 321 323 322 314 310 309 307
295 302 301 314 332 335 271 227 215 218 236 244 236 231 228 212 188 201 206 207 217 255 282 267 253 259 273 284 292 6 139 227 58 101 135 246 235 114 139 226 237 222 169 207 224 215 194 121 116 155 186 178 187 215 257 181 165 168 183 188 174 176 205 223 239 263 275 259 226 247 284 305 309 272 236 260 309 339 341 335 328 324 320 315 312 312 309
297 294 308 356 9 277 224 222 216 208 206 219 234 212 207 198 169 181 196 208 222 229 239 281 267 260 268 282 293 6 83 277 358 66 177 186 329 271 217 218 249 267 201 220 225 194 129 96 134 187 210 206 187 172 179 242 218 178 168 171 173 183 205 219 232 262 278 282 292 308 319 326 328 321 293 322 341 349 353 345 330 320 320 319 317 315 312
286 272 289 327 300 259 214 206 213 206 206 235 276 281 205 189 194 191 182 191 212 208 198 241 254 252 258 262 264 339 344 294 286 99 116 107 201 245 231 211 245 271 263 262 251 153 144 142 174 206 224 211 178 179 194 214 203 149 146 165 179 188 196 196 207 266 298 289 293 309 317 319 324 329 350 13 1 345 354 351 331 322 323 321 315 314 312
247 271 269 246 247 276 319 216 211 207 210 230 256 247 190 181 207 220 188 175 198 201 198 228 241 237 238 247 246 178 178 262 271 177 197 200 194 227 246 252 238 243 263 262 216 192 223 219 197 211 219 195 192 202 202 186 157 143 154 170 182 197 199 182 181 210 220 216 238 270 293 309 323 330 344 17 17 343 358 8 349 338 333 326 322 321 315
222 245 251 227 189 348 344 143 160 191 229 225 214 215 221 207 204 211 187 185 214 211 193 211 234 224 218 241 277 290 249 265 303 241 196 192 156 197 229 239 183 213 244 243 187 176 237 237 192 203 207 195 197 200 189 163 151 158 170 170 174 196 202 181 167 196 225 223 205 299 317 332 354 348 347 21 44 359 2 24 6 347 338 334 334 332 323
234 242 261 306 325 314 287 195 170 199 242 243 214 220 232 210 201 219 246 240 247 229 185 199 249 262 221 232 305 286 242 237 252 203 201 200 182 202 219 210 191 237 252 237 144 172 232 227 220 230 209 182 178 181 175 165 161 165 167 159 164 191 203 175 148 184 244 232 125 162 309 339 28 12 356 33 80 50 6 30 20 358 345 338 335 334 329
261 286 301 307 305 292 259 216 204 217 238 250 242 251 252 234 211 212 243 256 283 300 227 199 271 304 296 295 318 243 242 242 87 55 258 217 182 231 253 229 216 252 261 192 144 193 226 215 227 228 179 151 157 172 173 165 161 160 156 154 168 190 194 156 140 176 267 342 117 151 307 352 43 28 11 38 74 82 33 33 30 12 354 342 339 341 341
271 287 296 296 286 254 202 199 208 203 204 219 224 262 266 249 191 176 247 252 256 280 313 359 11 295 286 287 124 114 339 2 51 31 263 250 301 314 285 259 227 243 278 293 183 224 240 236 225 192 152 151 168 177 169 161 156 150 145 161 186 190 175 159 161 164 101 40 67 78 5 18 36 35 30 42 62 81 61 32 31 25 8 352 346 349 352
282 272 268 267 244 172 140 182 195 183 223 243 222 253 272 265 229 249 275 280 268 275 333 14 346 306 298 297 153 166 280 25 19 317 275 291 345 305 265 268 261 215 264 292 256 231 245 259 171 133 145 160 167 162 156 155 153 147 148 171 191 182 164 166 171 142 99 56 12 11 42 39 31 31 40 42 46 60 75 47 28 29 23 7 356 355 359
279 236 210 266 287 243 94 313 212 208 242 240 201 235 285 296 276 269 282 311 315 309 331 18 316 293 291 281 178 165 52 48 352 305 300 317 298 249 226 284 317 309 277 281 263 239 262 338 44 88 151 166 155 150 154 158 156 152 153 165 177 172 162 168 159 124 114 107 342 352 38 45 26 27 49 51 41 46 73 86 48 35 33 23 8 1 2
273 251 203 258 278 259 227 251 252 243 254 255 216 281 295 286 263 274 298 332 318 305 313 330 295 295 305 321 64 71 83 115 224 261 279 294 271 243 190 64 298 262 249 259 266 272 60 55 30 309 260 195 155 148 156 165 164 154 149 154 167 169 161 154 138 128 132 137 115 37 45 37 12 13 46 55 36 29 56 92 80 51 44 37 21 7 4
265 266 229 239 263 246 219 226 253 285 35 34 354 330 326 310 283 285 301 313 296 296 305 307 280 284 291 280 204 146 135 175 212 209 182 258 270 257 211 224 251 241 238 263 284 5 89 130 218 257 268 238 162 154 161 174 167 143 136 152 175 166 153 154 150 136 134 134 126 100 75 41 17 27 48 49 23 8 28 83 91 67 51 48 38 23 14
273 271 248 240 246 243 237 240 336 46 53 43 15 343 319 294 284 290 298 304 303 308 312 311 303 297 281 248 239 210 159 184 217 197 171 249 285 292 272 275 282 292 304 299 315 56 118 194 217 228 260 277 235 184 169 169 155 136 137 159 182 163 148 148 123 113 116 119 118 109 91 50 41 59 66 56 8 359 19 59 90 86 63 53 48 37 26
275 279 264 251 261 274 281 321 67 241 250 243 73 8 267 263 269 283 304 342 314 304 300 294 302 314 315 297 291 294 136 176 267 254 188 246 277 295 300 296 308 340 357 337 341 359 297 230 221 200 192 240 246 220 183 171 159 146 147 164 180 163 143 124 105 103 107 109 108 107 97 62 66 83 80 48 287 19 39 50 71 89 82 66 58 50 41
251 256 249 244 258 275 286 313 320 290 293 46 99 245 276 284 292 320 358 8 285 288 311 308 301 315 318 309 310 326 2 2 330 317 298 298 320 338 331 320 322 330 324 310 310 314 298 274 254 194 172 213 236 228 200 183 167 148 147 160 173 162 137 121 114 115 119 120 115 110 97 63 60 69 48 326 317 82 62 52 58 75 83 75 67 62 55
227 236 242 237 243 263 288 313 308 299 312 354 280 241 261 277 290 337 7 356 312 319 352 352 325 321 312 300 318 350 358 354 328 295 292 322 24 4 322 308 304 302 297 288 278 276 277 272 258 226 196 212 247 245 210 180 151 140 149 161 168 158 137 130 129 131 129 122 112 103 93 79 71 75 28 12 43 67 68 54 52 67 83 83 76 70 65
223 251 268 256 241 254 313 334 309 294 309 339 318 285 267 260 272 339 23 6 320 332 346 329 287 288 311 322 14 22 347 309 294 299 315 22 89 197 260 272 277 284 293 295 290 279 252 239 239 225 195 172 247 272 246 186 144 147 165 161 147 138 137 137 136 133 126 119 110 97 85 73 39 13 44 52 50 56 67 57 51 63 83 94 91 81 73
Height
824 821 818 815 812 809 806 802 800 796 791 787 786 784 782 781 776 766 761 762 760 766 773 768 767 771 771 771 772 772 775 778 777 775 774 775 774 772 775 777 778 780 779 779 784 786 785 784 782 786 791 791 792 789 784 783 783 788 799 798 792 791 796 804 802 786 770 756 743 739 740 743 750 748 742 743 745 745 752 757 755 759 761 751 756 765 744
824 821 819 816 813 810 806 804 801 799 797 794 792 789 785 783 776 766 762 761 761 771 778 774 773 773 769 771 776 776 778 781 782 782 782 781 781 781 782 781 780 782 780 781 786 789 791 792 786 786 792 792 791 789 786 786 787 793 801 801 800 803 806 813 816 806 791 775 763 759 758 762 767 761 752 749 746 744 745 747 752 763 765 761 766 766 744
824 822 820 816 813 810 807 805 802 800 799 797 795 793 789 785 778 768 762 760 763 772 776 774 775 776 775 777 780 782 784 784 784 785 786 785 784 786 786 783 782 782 783 787 788 787 793 799 794 791 793 791 789 790 790 790 791 794 796 795 799 808 812 816 824 829 822 808 800 797 791 785 778 767 760 757 755 757 762 767 772 777 775 771 771 764 744
825 823 821 817 814 811 807 805 803 801 800 797 795 795 792 788 783 776 771 766 767 772 772 772 778 780 782 784 783 784 787 788 785 785 788 789 787 788 788 786 787 789 791 796 797 792 795 801 801 801 801 798 794 793 792 793 794 795 796 794 797 807 812 814 820 825 823 817 810 803 797 794 788 777 769 765 763 764 768 776 781 778 778 778 768 758 752
826 824 822 819 815 812 808 806 803 801 800 797 795 794 791 789 786 785 786 782 779 779 777 777 783 784 785 791 790 787 789 792 790 788 790 793 792 791 790 790 794 798 800 803 806 805 803 804 806 807 806 803 798 795 794 795 795 797 798 797 801 812 816 811 811 813 810 807 802 795 793 795 792 785 777 770 767 767 769 777 778 773 781 783 764 754 761
827 825 823 820 817 813 810 807 804 801 799 797 795 793 791 790 787 783 786 790 790 789 785 783 787 788 789 793 794 793 796 799 799 795 792 794 797 798 798 797 798 800 803 807 810 813 813 812 812 813 811 809 807 804 801 797 795 799 803 802 805 818 821 811 808 808 803 799 797 794 794 794 789 787 783 774 770 771 773 774 773 770 780 782 765 758 762
828 826 824 822 819 815 812 809 806 802 800 797 796 796 793 793 792 786 784 788 791 790 786 784 788 791 794 797 799 800 803 805 803 800 798 799 802 804 806 806 802 800 802 808 813 817 819 820 818 815 814 814 814 813 809 802 798 802 807 806 808 818 820 811 809 811 806 801 797 793 793 793 789 787 784 778 774 773 771 770 769 769 771 768 760 759 757
829 827 826 823 821 818 814 811 809 805 802 799 798 800 800 800 802 799 794 792 791 790 787 787 793 797 798 803 805 803 807 811 809 805 806 810 809 807 809 810 807 805 804 807 812 814 816 819 817 813 814 814 812 813 813 808 804 805 807 808 810 818 820 813 812 816 813 805 798 795 794 793 790 787 783 780 777 773 770 768 767 769 768 761 758 761 758
830 828 827 825 823 820 817 814 812 809 806 803 802 804 806 805 805 804 804 800 795 794 792 792 800 806 806 808 809 807 808 812 813 810 809 812 813 810 810 811 808 807 807 808 811 811 811 813 810 806 809 811 810 811 809 807 808 809 809 809 810 817 821 816 817 826 821 808 803 801 795 792 793 789 785 783 779 774 770 768 767 768 768 764 764 767 759
831 830 828 826 824 822 820 817 815 812 810 809 809 809 808 808 805 803 806 804 796 795 796 797 805 811 810 808 809 811 810 808 812 816 812 808 808 807 807 809 809 811 812 811 809 807 807 808 805 803 805 805 805 806 803 802 807 811 812 812 811 815 820 820 823 830 824 812 809 806 803 807 805 791 781 779 776 771 768 767 765 762 763 767 769 764 755
832 831 829 828 826 824 822 820 818 816 814 814 815 815 813 814 812 807 807 807 799 797 801 805 808 809 806 806 809 812 813 809 812 819 816 808 804 803 803 806 810 813 812 807 802 801 802 803 802 802 803 802 802 802 801 802 805 808 810 813 813 814 819 821 822 828 827 817 811 812 819 824 809 782 770 772 772 773 774 770 765 760 758 758 757 755 755
833 832 830 829 827 826 824 822 821 819 819 818 819 819 818 818 817 813 812 810 805 803 807 809 808 806 806 809 811 813 813 811 809 811 813 809 805 802 801 804 809 810 805 800 798 800 802 803 803 802 801 802 802 801 803 805 805 804 805 810 813 815 819 821 822 826 826 819 819 829 832 819 795 775 769 770 770 773 774 770 766 767 766 763 760 760 762
833 832 831 830 829 827 825 824 823 822 822 821 820 820 821 819 818 816 815 813 808 806 809 809 805 806 809 811 813 813 811 808 806 806 807 807 805 803 800 802 806 804 800 799 800 804 807 809 809 808 805 804 804 805 807 808 807 806 805 807 811 816 819 820 821 824 825 824 829 834 823 800 787 781 775 772 772 775 778 776 771 771 773 772 770 768 765
834 833 832 831 830 828 827 825 824 823 823 823 822 822 822 821 820 819 818 819 815 808 808 811 810 810 812 812 812 813 810 807 807 808 807 806 805 804 801 801 803 801 800 803 805 809 814 816 817 815 810 808 812 814 813 810 809 809 809 807 810 814 818 822 824 822 822 826 828 822 812 803 797 789 779 775 776 778 783 786 781 776 775 774 772 772 770
835 833 833 832 830 830 828 827 826 825 824 824 823 823 823 823 822 822 820 821 821 814 811 816 817 815 814 813 812 814 813 811 812 812 808 805 805 805 802 801 804 803 803 806 810 813 816 819 824 825 819 818 824 824 820 817 814 811 809 810 811 814 818 824 828 823 820 825 827 824 823 816 803 792 785 781 779 776 777 784 785 782 780 776 774 775 775
835 834 833 832 831 830 829 828 827 826 825 825 824 824 824 824 823 823 821 820 822 819 814 813 813 814 815 814 812 814 816 815 815 816 814 810 807 807 804 803 806 806 806 808 812 816 819 823 829 831 826 824 829 830 827 827 825 816 811 812 814 814 816 822 829 828 825 827 829 827 824 812 801 798 795 790 786 779 776 785 791 789 785 779 776 777 777
835 834 833 833 832 831 830 829 828 827 826 826 825 825 825 824 824 824 822 822 822 817 810 808 810 813 816 816 813 814 815 814 815 819 820 816 813 811 808 806 807 807 808 812 814 817 821 825 828 829 826 824 827 829 828 831 832 825 819 819 819 818 820 826 831 831 828 828 828 822 812 804 803 804 799 793 789 784 787 797 798 791 787 783 779 779 778
835 834 834 833 832 832 831 830 829 828 828 827 826 826 826 826 825 825 823 823 823 816 808 807 810 812 814 816 816 814 814 814 816 819 818 815 814 814 812 810 811 809 809 813 817 819 822 825 826 827 825 822 823 828 829 831 833 829 826 827 825 822 825 828 830 830 827 827 828 820 809 806 809 806 799 794 791 791 799 805 800 793 790 785 781 781 779
834 834 834 833 833 832 831 831 830 829 829 828 827 827 827 827 826 826 825 825 825 821 813 809 811 812 811 812 812 811 811 812 814 818 820 818 814 812 810 811 813 813 811 813 817 820 823 826 825 825 824 822 822 827 829 829 830 829 830 831 831 830 829 826 825 828 827 825 824 819 812 811 811 805 798 796 799 803 804 802 797 793 790 784 783 783 780
834 834 833 833 833 832 832 831 831 830 829 829 829 828 828 828 827 827 827 826 827 825 816 810 811 812 809 809 810 811 810 810 811 815 819 818 813 811 815 818 816 814 814 815 818 821 823 825 823 821 822 822 823 826 827 827 826 827 829 830 830 833 834 828 825 828 829 825 821 818 815 812 810 806 802 802 807 810 805 800 795 791 787 785 785 783 781
834 833 833 833 833 832 832 832 831 831 830 830 830 829 829 829 828 828 828 828 829 827 818 812 812 812 810 808 808 808 809 808 808 810 813 813 811 814 820 820 816 815 816 818 819 820 820 821 821 819 819 820 821 823 825 826 826 824 824 826 827 830 833 832 829 829 831 828 819 814 815 813 810 810 809 807 807 805 802 801 797 790 788 787 786 784 783
833 832 832 833 832 832 832 832 832 831 830 830 830 830 830 829 829 829 829 828 829 827 820 815 813 812 810 807 806 806 805 804 804 805 808 810 810 812 814 813 812 813 813 815 819 820 819 819 820 820 820 819 819 819 821 823 825 823 821 822 826 826 825 828 829 827 826 824 815 809 811 811 808 808 807 805 804 802 800 800 797 792 790 788 787 788 786
832 832 831 832 832 832 832 831 832 832 831 831 831 830 830 830 829 829 829 828 827 824 818 814 814 811 808 805 803 803 803 803 803 803 805 808 810 809 809 809 811 810 810 812 817 818 818 818 818 820 821 819 817 819 820 819 821 821 819 819 820 819 818 823 826 823 819 815 809 806 808 808 806 806 805 803 803 802 799 799 797 794 791 789 789 789 786
831 831 831 831 831 831 831 831 831 831 830 831 831 830 830 830 829 829 829 827 826 823 817 812 811 810 805 802 800 800 800 801 802 801 802 805 809 810 808 806 808 810 810 811 812 813 817 817 816 819 822 817 815 820 821 818 817 818 819 817 816 817 819 821 822 821 820 816 808 805 808 809 807 805 803 802 802 801 800 799 798 794 792 790 789 788 786
830 830 830 830 830 830 830 830 830 830 830 830 830 830 830 830 829 830 830 828 827 827 825 818 810 805 802 800 799 799 798 798 799 800 801 801 804 808 807 805 805 808 810 810 810 813 817 817 815 820 821 816 814 817 817 816 816 816 817 816 814 816 821 821 817 818 820 815 807 805 809 808 804 803 804 803 802 801 799 798 796 794 792 790 787 786 785
830 829 829 829 829 829 829 829 829 829 829 829 829 830 830 829 829 829 829 829 827 826 826 821 810 802 802 802 799 797 796 796 796 796 797 799 800 803 803 803 804 806 807 808 810 812 815 815 815 818 819 815 814 815 814 814 814 814 815 813 810 813 818 817 816 817 816 810 807 809 810 806 802 802 804 803 803 801 799 797 795 793 791 789 786 785 784
829 829 828 828 828 828 828 828 828 828 828 828 828 828 828 828 828 828 828 829 828 825 824 820 811 804 803 801 797 795 795 794 794 793 794 795 797 799 799 800 803 805 806 808 810 810 813 815 815 816 816 813 811 811 810 809 809 811 811 808 808 813 815 813 816 819 815 809 809 813 815 812 807 805 804 803 802 801 799 796 794 792 791 788 786 784 782
827 828 827 827 827 827 827 827 827 827 827 827 827 827 827 825 826 826 827 828 828 827 825 821 814 809 805 799 793 792 792 791 791 791 791 791 793 794 795 797 800 803 805 808 810 811 813 814 813 811 811 809 809 809 808 808 810 811 808 804 805 809 809 809 814 817 812 808 809 812 815 814 809 805 804 803 801 800 799 796 794 792 789 787 785 783 781
826 826 827 826 826 826 825 825 825 825 826 826 826 826 824 822 822 824 825 826 827 826 825 822 815 809 804 797 791 789 789 788 788 788 788 788 789 790 792 794 796 799 801 804 808 810 810 809 807 807 806 805 808 810 810 810 811 808 802 800 801 803 803 805 809 811 808 806 807 809 811 810 807 804 803 801 800 799 797 795 793 790 788 785 784 782 780
825 825 825 825 825 824 824 824 824 824 824 825 826 825 823 820 821 823 823 824 825 825 825 824 818 809 801 795 791 788 786 786 786 786 785 785 786 787 789 791 791 794 797 800 802 805 806 805 804 804 802 802 805 808 808 808 807 802 799 798 799 799 801 802 804 805 806 805 804 805 807 806 804 802 801 799 797 797 795 792 791 789 786 784 782 780 778
824 824 824 823 823 823 822 823 823 823 823 824 825 824 821 819 820 822 822 823 824 824 824 824 818 809 800 792 787 785 784 784 784 785 785 786 785 787 790 791 790 791 793 795 797 799 801 801 801 801 800 799 801 803 804 805 804 800 797 797 797 796 798 799 799 800 801 801 802 803 804 802 801 800 798 796 795 794 792 790 788 786 784 781 779 778 776
823 822 822 822 822 821 821 821 821 821 822 822 822 820 818 818 819 820 821 823 823 823 824 823 817 811 802 792 784 782 782 782 783 785 788 789 788 787 790 793 793 791 791 793 797 798 797 797 797 798 799 800 800 801 801 801 799 796 794 794 793 793 795 796 797 797 798 798 801 803 802 799 798 797 795 794 792 791 790 788 785 783 781 779 776 775 773
822 821 821 821 820 819 820 820 820 820 820 819 818 816 815 816 818 818 820 822 821 821 822 821 817 811 802 792 785 782 780 782 785 787 789 791 791 790 790 792 794 793 791 793 795 794 791 792 795 798 799 799 800 803 802 797 791 789 790 790 790 790 792 794 795 795 795 795 798 799 798 795 793 792 791 790 789 789 787 785 783 781 779 776 774 772 770
820 820 820 819 818 818 818 818 818 818 818 818 816 814 813 814 815 817 819 820 820 820 820 818 816 810 800 792 787 782 779 781 786 788 789 790 790 791 791 791 792 792 790 789 791 791 788 789 794 799 799 797 800 804 801 792 786 786 788 788 788 789 790 791 792 792 792 793 794 794 793 791 790 789 789 788 787 786 785 783 781 779 777 775 773 771 769
819 819 819 818 817 817 817 817 818 818 818 816 814 812 812 813 813 815 817 818 818 819 817 814 813 809 803 797 791 784 779 781 784 786 788 789 787 788 791 793 794 792 789 787 788 789 788 788 793 797 796 796 800 801 794 786 784 786 787 787 787 788 790 791 791 790 789 790 791 790 790 789 788 788 788 787 786 785 783 782 780 778 776 775 772 770 767
818 818 817 816 816 816 816 816 817 817 816 815 812 811 812 812 812 814 815 815 817 817 815 811 809 805 803 800 793 784 780 783 785 785 787 789 788 788 791 793 792 789 787 786 786 786 786 787 791 794 794 793 793 792 787 784 785 785 786 786 787 787 789 790 789 789 788 788 789 789 788 787 787 786 786 786 785 784 783 782 780 778 776 774 771 768 765
817 817 817 816 817 816 815 815 814 813 812 812 811 811 812 812 812 814 815 815 815 815 815 814 809 802 799 799 793 784 782 786 788 787 787 790 792 791 790 791 790 787 785 785 784 783 785 787 791 794 793 788 785 784 784 785 784 783 783 785 785 786 787 787 787 787 788 787 788 788 787 787 786 785 784 785 784 783 783 782 780 778 776 773 770 767 764
817 816 816 817 816 814 812 812 811 810 811 811 811 812 811 811 812 812 812 814 813 811 812 814 808 799 798 799 794 787 787 789 790 789 789 791 793 791 789 789 789 787 786 784 781 781 785 788 789 789 787 784 782 782 782 782 781 781 782 784 784 784 785 786 786 787 788 789 789 788 787 786 786 784 783 783 783 782 782 781 780 777 774 772 769 766 763
817 817 816 817 816 812 810 810 810 810 810 810 811 811 809 809 811 810 806 807 809 807 807 807 801 795 795 796 790 785 785 787 789 791 791 790 791 791 790 789 788 788 788 785 781 782 786 786 784 783 783 783 782 780 778 778 779 780 781 782 783 783 784 784 785 786 787 787 787 786 785 785 785 783 782 782 782 781 781 780 779 776 774 771 767 764 761
817 816 815 814 812 811 810 810 810 811 810 810 810 809 807 808 808 804 800 802 803 800 798 797 791 786 787 789 788 786 785 786 787 789 789 788 787 789 790 789 788 788 788 783 779 781 783 783 782 782 781 780 778 776 775 776 778 779 780 781 782 782 783 783 784 784 784 784 784 784 783 783 782 782 781 780 780 781 780 779 778 776 773 770 766 763 759
816 815 814 812 811 811 811 810 809 810 810 809 809 808 807 806 801 797 797 801 799 790 785 785 785 783 782 784 786 786 784 782 781 782 784 785 785 786 788 788 786 786 785 780 778 780 782 783 783 780 775 773 773 773 774 775 776 777 779 779 780 781 782 782 782 783 783 783 783 783 783 782 781 781 780 779 779 780 779 778 777 775 772 769 765 762 758
815 814 813 812 810 809 809 809 809 809 809 809 810 809 805 799 796 796 797 798 793 785 780 780 782 783 782 780 781 782 781 779 779 781 784 785 783 783 784 784 785 786 783 777 776 779 781 781 779 775 770 769 771 772 772 774 775 776 777 778 779 781 781 781 782 782 782 782 782 782 782 781 780 780 779 779 778 778 778 777 776 774 772 769 765 761 758
814 813 813 812 809 806 807 808 806 806 808 810 810 810 804 798 797 800 798 793 788 785 782 780 781 782 780 777 778 780 779 778 780 782 784 783 781 782 784 784 783 784 781 776 776 780 780 776 772 770 768 769 770 770 771 772 773 775 777 778 779 780 780 780 781 781 781 781 781 781 781 780 779 779 779 778 778 777 777 776 775 774 772 769 765 761 758
813 811 811 810 805 804 807 807 802 805 810 809 805 805 804 799 797 799 797 790 786 784 783 785 789 789 783 777 776 779 779 779 782 784 783 781 781 785 787 785 781 779 778 778 780 780 776 769 765 766 768 768 767 767 769 770 772 775 777 778 778 779 779 779 779 780 780 781 781 780 780 780 779 779 778 778 777 777 776 776 775 773 772 770 766 762 759
812 810 811 811 807 805 808 807 802 802 805 802 797 798 799 797 797 796 791 786 784 783 782 784 788 788 781 775 775 778 781 784 787 787 785 784 785 785 784 782 779 777 779 782 781 777 774 772 771 770 769 768 766 767 768 769 771 773 775 776 777 778 778 778 779 779 780 781 780 780 780 779 779 779 778 778 777 777 776 775 775 773 772 770 767 764 761
812 808 808 812 810 806 806 807 803 799 796 794 793 794 795 794 794 791 786 784 785 785 781 781 782 782 778 775 775 778 781 784 787 788 787 788 788 783 779 780 781 780 781 782 779 775 775 779 779 776 772 768 766 767 768 768 769 771 773 775 776 777 777 777 778 778 779 780 780 780 780 779 779 779 778 778 777 777 776 775 774 773 772 771 769 766 764
811 805 804 809 809 803 800 800 797 793 791 792 794 796 795 793 791 787 785 785 785 782 779 778 779 778 776 774 776 778 780 782 784 786 787 786 784 779 776 778 779 778 778 779 776 773 775 778 777 775 772 769 766 766 767 768 768 769 772 774 774 775 775 776 776 777 778 779 779 779 780 779 779 779 778 778 778 777 776 775 774 773 772 772 770 768 766
809 804 805 808 806 799 795 792 790 788 790 792 793 795 795 795 793 789 786 783 781 779 779 779 778 777 775 773 773 775 778 780 782 783 782 782 781 780 780 780 776 773 774 776 772 769 772 774 772 770 771 771 769 767 767 767 767 768 770 772 773 773 774 775 775 776 777 778 779 780 780 779 779 779 779 778 778 777 775 775 775 774 773 772 771 770 767
808 806 805 804 799 792 788 787 788 789 790 790 791 792 792 792 790 787 783 780 779 778 778 777 777 778 777 773 770 772 776 779 779 778 778 780 781 781 782 781 778 775 778 780 777 773 772 771 769 768 770 772 771 768 766 765 766 768 769 771 771 771 773 774 775 776 778 779 779 780 779 779 779 779 778 778 777 776 776 775 775 774 774 773 772 771 769
807 806 803 801 798 793 787 786 789 790 788 788 791 792 790 788 786 783 779 778 778 778 776 776 777 778 778 776 776 777 777 777 777 779 780 782 783 784 784 784 781 780 782 783 781 777 773 771 769 768 768 769 768 767 765 764 765 766 768 769 770 770 771 773 775 776 778 779 779 779 779 779 779 779 778 777 776 776 775 775 775 774 774 774 772 771 770
805 803 798 794 793 791 787 787 790 790 787 788 790 789 786 785 784 782 779 778 778 778 779 780 780 781 781 782 783 783 781 778 779 782 784 784 786 790 791 788 783 780 779 778 775 773 771 770 769 768 766 765 766 766 764 763 764 765 766 767 768 768 770 772 774 776 777 778 779 779 779 779 779 778 777 777 776 776 775 775 774 774 774 774 773 772 772
801 798 792 786 784 784 785 786 788 786 784 785 785 783 782 783 782 780 779 780 780 781 781 780 780 784 786 784 784 787 787 783 781 782 783 784 786 788 788 786 781 778 776 774 771 769 768 767 766 765 764 764 766 766 764 762 762 764 765 765 766 768 769 771 772 774 776 777 778 779 779 779 779 778 777 776 776 776 775 775 775 774 774 774 774 774 773